Location: Claflin County Park
(44.8478°N, 87.5507°W)
Time: 14:58:39
(UTC+00:00)

Cosmos 2082 Rocket - Pass Details

Date: 10 December 2025
Orbit: 832 x 852 km, 71.0° (Epoch: 19 January)

Event Time Altitude Azimuth Distance (km) Brightness Sun altitude
Exits shadow 10:11:01 35° 30° (NNE) 1,313 3.3 -32.0°
Drops below altitude 10° 10:14:11 10° 27° (NNE) 2,450 4.8 -31.5°
Sets 10:16:38 0° 27° (NNE) 3,387 5.6 -31.0°
